User: anonymous   Login
Location: Caltech
(34.1382°N, 118.1253°W)
Time: 01:37:27
(UTC-08:00)
Language:

Cosmos 2219 - Orbit

View from above orbital plane
View from above orbital plane
View from above satellite
View from above satellite

Ground track
Ground track

The orbit data is extracted from the following two-line orbital elements,

1 22219U 92076A   16343.28302473 -.00000311  00000-0 -13944-3 0  9997
2 22219  71.0606 236.4851 0020287 314.2790  45.6667 14.13602634241238
Epoch (UTC): 08 December 2016 06:47:33
Eccentricity: 0.0020287
inclination: 71.0606°
perigee height: 832 km
apogee height: 862 km
right ascension of ascending node: 236.4851°
argument of perigee: 314.2790°
revolutions per day: 14.13602634
mean anomaly at epoch: 45.6667°
orbit number at epoch: 24123

The dashed part of the orbit path shows where the satellite is in the earth's shadow,  

DLR